GW2440 Weather Reports


Display with metric or nautical units.
time (UTC)temp
F
wind
direction
speed
MPH
gust
MPH
rain 1hr
in
rain 24hr
in
rain mn
in
humidity
%
barometer
mb
20260503184529 75 61 7.0 8.0 0.00 0.03 0.03 66 1019.6
20260503184026 77 113 6.0 9.0 0.00 0.03 0.03 67 1019.2
20260503183522 76 49 2.0 3.0 0.00 0.03 0.03 68 1019.6
20260503183019 76 43 9.0 10.0 0.00 0.03 0.03 67 1019.2
20260503182518 75 61 9.0 10.0 0.00 0.03 0.03 68 1019.6
20260503182015 74 46 10.0 14.0 0.00 0.03 0.03 67 1019.9
20260503181512 74 34 5.0 7.0 0.00 0.03 0.03 68 1019.6
20260503181008 76 80 4.0 6.0 0.00 0.03 0.03 67 1019.6
20260503180506 75 59 7.0 9.0 0.00 0.03 0.03 67 1019.6
20260503180003 74 46 9.0 13.0 0.00 0.03 0.03 70 1019.6
20260503175501 75 80 7.0 9.0 0.00 0.03 0.03 69 1019.9
20260503174957 76 12 8.0 13.0 0.00 0.03 0.03 67 1019.6
20260503174455 75 73 6.0 9.0 0.00 0.03 0.03 67 1019.9
20260503173950 76 65 6.0 8.0 0.00 0.03 0.03 66 1019.6
20260503173446 75 72 5.0 6.0 0.00 0.03 0.03 68 1019.9
20260503172943 75 51 6.0 9.0 0.00 0.03 0.03 69 1019.9
20260503172440 74 27 5.0 7.0 0.00 0.03 0.03 69 1019.9
20260503171937 75 47 7.0 8.0 0.00 0.03 0.03 71 1020.3
20260503171433 75 60 7.0 13.0 0.00 0.03 0.03 68 1019.9
20260503170931 74 60 6.0 8.0 0.00 0.03 0.03 70 1019.9
20260503170427 74 20 3.0 5.0 0.00 0.03 0.03 72 1019.9
20260503150819 70 356 6.0 9.0 0.00 0.03 0.03 83 1020.6
20260503150315 70 63 3.0 6.0 0.00 0.03 0.03 84 1020.3
20260503140240 69 29 3.0 6.0 0.00 0.03 0.03 86 1019.6
20260503131209 65 120 2.0 2.0 0.00 0.03 0.03 93 1019.2
20260503130707 65 150 1.0 2.0 0.00 0.03 0.03 93 1019.6
20260503130204 65 203 1.0 2.0 0.00 0.03 0.03 94 1019.2
20260503120130 63 317 2.0 3.0 0.00 0.03 0.03 96 1018.6
20260503110557 63 50 2.0 3.0 0.00 0.03 0.03 97 1018.2
20260503090444 63 343 3.0 3.0 0.00 0.03 0.03 99 1017.2
20260503081411 63 4 6.0 8.0 0.00 0.03 0.03 99 1016.9
20260503080908 63 63 2.0 5.0 0.00 0.03 0.03 99 1016.9
20260503080404 63 340 0.0 1.0 0.00 0.03 0.03 99 1016.9
20260503072841 63 28 1.0 2.0 0.00 0.03 0.03 99 1016.5
20260503072338 63 346 3.0 3.0 0.00 0.03 0.03 99 1016.5
20260503071834 63 354 2.0 3.0 0.00 0.03 0.03 99 1016.5
20260503071331 63 58 1.0 2.0 0.00 0.03 0.03 99 1016.5
20260503070827 63 49 2.0 3.0 0.00 0.03 0.03 99 1016.9
20260503070326 63 26 3.0 3.0 0.00 0.03 0.03 99 1016.9
20260503060238 64 48 1.0 1.0 0.00 0.03 0.03 99 1016.9
20260503054725 64 54 0.0 0.0 0.00 0.03 0.03 99 1017.2
20260503054222 64 87 0.0 0.0 0.00 0.03 0.03 99 1016.9
20260503053720 64 67 1.0 1.0 0.00 0.03 0.03 99 1017.2
20260503053219 64 6 3.0 3.0 0.00 0.03 0.03 99 1017.2
20260503052715 64 32 2.0 2.0 0.00 0.03 0.03 99 1017.2
20260503052211 64 310 3.0 3.0 0.00 0.03 0.03 99 1017.5
20260503051707 64 30 3.0 3.0 0.00 0.03 0.03 99 1017.2
20260503051205 64 4 4.0 5.0 0.00 0.03 0.03 99 1017.2
20260503050701 64 268 2.0 2.0 0.00 0.03 0.03 99 1017.2
20260503050157 64 340 3.0 3.0 0.00 0.03 0.03 99 1017.2
20260503045655 64 29 2.0 3.0 0.05 0.03 0.03 99 1017.2
20260503045153 64 336 1.0 3.0 0.05 0.03 0.03 99 1017.5
20260503044649 64 271 1.0 2.0 0.00 0.02 0.02 99 1016.9
20260503044146 64 11 5.0 6.0 0.07 0.02 0.02 99 1016.5
20260503043643 64 303 3.0 3.0 0.07 0.02 0.02 99 1016.9
20260503043140 65 343 3.0 5.0 0.00 0.01 0.01 99 1016.5
20260503042636 65 343 2.0 2.0 0.00 0.01 0.01 99 1016.9
20260503042132 65 2 4.0 5.0 0.00 0.01 0.01 99 1016.5
20260503041629 65 18 3.0 5.0 0.05 0.01 0.01 99 1016.5
20260503041127 65 316 3.0 5.0 0.05 0.01 0.01 99 1016.2
20260503040624 66 355 9.0 14.0 0.05 0.01 0.01 99 1015.8
20260503040122 67 354 1.0 2.0 0.00 0.00 0.00 99 1015.8
20260503035618 67 353 4.0 5.0 0.00 0.60 0.60 99 1015.8
20260503035116 67 19 3.0 3.0 0.00 0.60 0.60 99 1015.5
20260503034613 67 342 5.0 7.0 0.00 0.60 0.60 99 1015.5
20260503034110 67 13 3.0 3.0 0.00 0.60 0.60 99 1015.2
20260503033607 68 38 4.0 5.0 0.07 0.60 0.60 99 1015.2
20260503033105 68 13 5.0 8.0 0.07 0.60 0.60 99 1015.2
20260503032603 68 42 7.0 10.0 0.07 0.59 0.59 99 1015.2
20260503032101 70 50 7.0 9.0 0.07 0.59 0.59 98 1015.2
20260503031558 71 11 2.0 2.0 0.00 0.58 0.58 98 1014.8
20260503031055 71 218 2.0 2.0 0.00 0.58 0.58 97 1014.8
20260503030551 71 237 2.0 2.0 0.00 0.58 0.58 97 1014.8
20260503030049 71 232 2.0 2.0 0.00 0.58 0.58 97 1014.8
20260503025545 71 239 4.0 5.0 0.00 0.58 0.58 97 1014.5
20260503025043 71 240 2.0 2.0 0.00 0.58 0.58 97 1014.8
20260503024539 71 208 5.0 6.0 0.00 0.58 0.58 97 1014.5
20260503024036 71 235 3.0 3.0 0.00 0.58 0.58 97 1014.5
20260503023533 71 209 3.0 3.0 0.00 0.58 0.58 97 1014.5
20260503023031 71 230 2.0 2.0 0.00 0.58 0.58 97 1014.5
20260503022526 71 218 2.0 3.0 0.00 0.58 0.58 97 1014.5
20260503022021 71 244 3.0 3.0 0.00 0.58 0.58 96 1014.5
20260503021518 71 236 3.0 3.0 0.00 0.58 0.58 97 1014.2
20260503021015 70 240 4.0 5.0 0.00 0.58 0.58 97 1014.5
20260503020512 70 208 3.0 5.0 0.00 0.58 0.58 97 1014.2
20260503020009 70 195 1.0 1.0 0.00 0.58 0.58 96 1013.5
20260503015506 70 223 1.0 1.0 0.00 0.58 0.58 96 1013.5
20260503015003 70 212 1.0 1.0 0.00 0.58 0.58 96 1013.5
20260503014459 70 225 3.0 3.0 0.00 0.58 0.58 96 1013.5
20260503013957 70 242 3.0 3.0 0.00 0.58 0.58 96 1013.5
20260503013454 70 234 3.0 3.0 0.00 0.58 0.58 96 1013.1
20260503012951 70 221 3.0 3.0 0.00 0.58 0.58 96 1013.1
20260503012449 70 240 2.0 2.0 0.00 0.58 0.58 96 1013.1
20260503011944 71 240 3.0 3.0 0.00 0.58 0.58 95 1013.1
20260503011442 71 245 3.0 3.0 0.00 0.58 0.58 95 1013.1
20260503010939 71 224 2.0 2.0 0.00 0.58 0.58 95 1013.1
20260503010436 71 212 1.0 2.0 0.00 0.58 0.58 95 1013.1
20260503005933 71 221 3.0 3.0 0.00 0.58 0.58 95 1013.5
20260503005430 71 257 2.0 2.0 0.00 0.58 0.58 95 1012.8
20260503004927 71 245 2.0 2.0 0.00 0.58 0.58 95 1012.8
20260503004423 71 199 4.0 6.0 0.00 0.58 0.58 95 1013.1
20260503003921 71 235 3.0 3.0 0.00 0.58 0.58 95 1012.8
20260503003418 71 200 4.0 6.0 0.00 0.58 0.58 95 1013.1
20260503002915 71 203 3.0 3.0 0.00 0.58 0.58 95 1013.1
20260503002412 70 234 3.0 3.0 0.00 0.58 0.58 95 1012.8
20260503001908 70 202 2.0 2.0 0.00 0.58 0.58 96 1012.8
20260503001405 70 237 2.0 2.0 0.00 0.58 0.58 96 1012.8
20260503000903 70 219 1.0 1.0 0.00 0.58 0.58 96 1012.5
20260503000400 70 238 3.0 3.0 0.00 0.58 0.58 96 1012.5
20260502235856 70 236 4.0 6.0 0.00 0.58 0.58 97 1012.5
20260502235353 69 237 3.0 5.0 0.00 0.58 0.58 97 1012.5
20260502234850 69 237 4.0 5.0 0.00 0.58 0.58 97 1012.1
20260502234347 69 239 3.0 3.0 0.00 0.58 0.58 98 1012.5
20260502233844 69 240 3.0 3.0 0.00 0.58 0.58 98 1012.1
20260502233340 69 242 4.0 5.0 0.00 0.58 0.58 99 1012.5
20260502232837 68 241 3.0 3.0 0.00 0.58 0.58 99 1012.5
20260502232333 68 202 4.0 5.0 0.00 0.58 0.58 99 1012.5
20260502231830 68 226 5.0 7.0 0.00 0.58 0.58 99 1012.1
20260502231328 68 234 5.0 6.0 0.00 0.58 0.58 99 1012.5
20260502230826 68 219 5.0 6.0 0.00 0.58 0.58 99 1012.5
20260502230324 68 191 4.0 6.0 0.00 0.58 0.58 99 1012.5
20260502225820 68 226 5.0 6.0 0.00 0.58 0.58 99 1013.1
20260502225317 68 238 6.0 8.0 0.00 0.58 0.58 99 1012.8
20260502224814 68 245 4.0 5.0 0.00 0.58 0.58 99 1012.5
20260502224310 68 195 3.0 6.0 0.00 0.58 0.58 99 1012.5
20260502223808 68 238 7.0 8.0 0.05 0.58 0.58 99 1012.5
20260502223306 68 187 6.0 8.0 0.05 0.58 0.58 99 1012.1
20260502222803 68 247 5.0 6.0 0.00 0.57 0.57 99 1012.1
20260502222300 68 220 2.0 2.0 0.00 0.57 0.57 99 1011.8
20260502221756 68 245 3.0 3.0 0.00 0.57 0.57 99 1012.1
20260502221252 68 196 4.0 5.0 0.00 0.57 0.57 99 1011.4
20260502220749 68 207 5.0 6.0 0.00 0.57 0.57 99 1011.8
20260502220245 68 269 5.0 7.0 0.07 0.57 0.57 99 1011.8
20260502215742 68 207 5.0 6.0 0.07 0.57 0.57 99 1012.5
20260502215239 68 237 3.0 5.0 0.00 0.56 0.56 99 1012.1
20260502214736 68 205 4.0 6.0 0.00 0.56 0.56 99 1012.1
20260502214235 68 235 5.0 7.0 0.00 0.56 0.56 99 1012.1
20260502213730 69 202 9.0 10.0 0.00 0.56 0.56 99 1012.1
20260502213228 69 235 6.0 7.0 0.00 0.56 0.56 99 1012.1
20260502212726 68 221 5.0 6.0 0.00 0.56 0.56 99 1011.8
20260502212224 69 241 7.0 8.0 0.00 0.56 0.56 99 1011.8
20260502211720 69 217 5.0 6.0 0.00 0.56 0.56 99 1011.8
20260502211217 68 231 2.0 3.0 0.00 0.56 0.56 99 1011.4
20260502210714 68 190 1.0 2.0 0.00 0.56 0.56 99 1011.1
20260502210211 68 193 3.0 3.0 0.05 0.56 0.56 99 1010.8
20260502205708 68 193 3.0 3.0 0.17 0.56 0.56 99 1011.1
20260502205159 68 197 0.0 1.0 0.17 0.56 0.56 99 1011.1
20260502204656 68 133 2.0 2.0 0.12 0.54 0.54 99 1012.1
20260502204154 69 208 2.0 3.0 0.19 0.53 0.53 99 1012.8
20260502203651 69 207 5.0 6.0 0.17 0.52 0.52 99 1013.1
20260502203149 69 206 6.0 8.0 0.12 0.50 0.50 99 1013.1
20260502202643 68 276 11.0 14.0 0.07 0.49 0.49 99 1013.1
20260502202141 68 236 8.0 11.0 0.00 0.48 0.48 99 1013.5
20260502201638 68 256 6.0 10.0 0.00 0.48 0.48 99 1013.5
20260502201134 68 232 5.0 6.0 0.00 0.48 0.48 99 1013.1
20260502200630 68 250 9.0 9.0 0.05 0.48 0.48 99 1013.1
20260502200127 68 274 7.0 10.0 0.12 0.48 0.48 99 1013.1
20260502195626 68 233 4.0 5.0 0.31 0.48 0.48 99 1013.5
20260502195121 68 262 7.0 8.0 0.19 0.46 0.46 99 1013.5
20260502194618 68 208 3.0 3.0 0.00 0.43 0.43 99 1013.5
20260502194115 68 243 12.0 16.0 0.00 0.43 0.43 99 1013.8
20260502193612 68 232 4.0 5.0 0.12 0.43 0.43 99 1013.1
20260502193108 69 262 9.0 11.0 0.35 0.43 0.43 99 1012.8
20260502192604 69 290 8.0 10.0 0.31 0.42 0.42 98 1013.1
20260502192102 69 229 4.0 5.0 0.59 0.37 0.37 97 1013.1
20260502191558 70 229 7.0 10.0 0.59 0.37 0.37 96 1013.5
20260502191056 72 238 14.0 21.0 0.00 0.27 0.27 95 1013.5
20260502190553 75 275 5.0 6.0 0.00 0.27 0.27 99 1013.5
20260502190050 74 233 5.0 5.0 0.00 0.27 0.27 99 1012.5
20260502185544 74 221 1.0 1.0 0.00 0.27 0.27 99 1012.5
20260502185042 74 218 4.0 5.0 0.00 0.27 0.27 99 1012.5